When you browse on this site, cookies collect data to enhance your experience and personalize the content and advertising you see.
Visit our Privacy Policy to learn more. By continuing to use the site, you agree to this use of cookies and data.
  • In Hungary
  • List of Countries
  • For 7 days
  • Water Temperature
  • Satellite Maps
  • Weather Map
  • News
  • Weather Widgets
  • user-avatar
    Login

    Hourly Weather Letunovka

    Today, 24 January, Thursday

    Time Temperature Precipitation Wind Pressure Humidity
    00:00 -20°C° 0 mm 4 mps 754 mmHg 90%
    01:00 -20°C° 0.2 mm 5 mps 753 mmHg 92%
    02:00 -20°C° 0.2 mm 5 mps 753 mmHg 93%
    03:00 -20°C° 0 mm 5 mps 752 mmHg 94%
    04:00 -19°C° 0.8 mm 5 mps 751 mmHg 95%
    05:00 -20°C° 0.8 mm 6 mps 750 mmHg 95%
    06:00 -18°C° 0.8 mm 6 mps 749 mmHg 96%
    07:00 -17°C° 0.9 mm 6 mps 748 mmHg 95%
    08:00 -16°C° 0.9 mm 6 mps 748 mmHg 94%
    09:00 -16°C° 0.9 mm 6 mps 747 mmHg 94%
    10:00 -14°C° 0.4 mm 5 mps 746 mmHg 94%
    11:00 -13°C° 0.4 mm 5 mps 746 mmHg 94%
    12:00 -11°C° 0.4 mm 4 mps 745 mmHg 94%
    13:00 -10°C° 0.3 mm 4 mps 745 mmHg 94%
    14:00 -9°C° 0.3 mm 3 mps 745 mmHg 95%
    15:00 -7°C° 0.3 mm 2 mps 744 mmHg 95%
    16:00 -9°C° 0.1 mm 3 mps 745 mmHg 95%
    17:00 -9°C° 0.1 mm 3 mps 745 mmHg 95%
    18:00 -11°C° 0.1 mm 4 mps 745 mmHg 96%
    19:00 -12°C° 0 mm 4 mps 746 mmHg 95%
    20:00 -14°C° 0 mm 5 mps 746 mmHg 95%
    21:00 -17°C° 0 mm 5 mps 746 mmHg 95%
    22:00 -18°C° 0 mm 5 mps 747 mmHg 95%
    23:00 -18°C° 0 mm 4 mps 748 mmHg 96%

    Tomorrow, 25 January, Friday

    Time Temperature Precipitation Wind Pressure Humidity
    00:00 -20°C° 0 mm 4 mps 748 mmHg 96%
    01:00 -22°C° 0 mm 4 mps 749 mmHg 96%
    02:00 -22°C° 0 mm 3 mps 750 mmHg 97%
    03:00 -23°C° 0 mm 3 mps 751 mmHg 98%
    04:00 -23°C° 0 mm 3 mps 751 mmHg 98%
    05:00 -23°C° 0 mm 3 mps 752 mmHg 99%
    06:00 -24°C° 0 mm 3 mps 752 mmHg 99%
    07:00 -24°C° 0 mm 3 mps 753 mmHg 99%
    08:00 -24°C° 0 mm 3 mps 754 mmHg 99%
    09:00 -24°C° 0 mm 3 mps 755 mmHg 99%
    10:00 -22°C° 0 mm 3 mps 755 mmHg 98%
    11:00 -21°C° 0 mm 3 mps 756 mmHg 96%
    12:00 -19°C° 0 mm 3 mps 756 mmHg 95%
    13:00 -18°C° 0 mm 3 mps 756 mmHg 95%
    14:00 -17°C° 0 mm 2 mps 757 mmHg 95%
    15:00 -17°C° 0 mm 2 mps 757 mmHg 94%
    16:00 -18°C° 0 mm 2 mps 757 mmHg 95%
    17:00 -19°C° 0 mm 2 mps 757 mmHg 95%
    18:00 -20°C° 0 mm 2 mps 758 mmHg 96%
    19:00 -21°C° 0 mm 2 mps 758 mmHg 95%
    20:00 -23°C° 0 mm 3 mps 758 mmHg 95%
    21:00 -23°C° 0 mm 3 mps 758 mmHg 95%
    22:00 -23°C° 0 mm 3 mps 758 mmHg 94%
    23:00 -24°C° 0 mm 3 mps 758 mmHg 92%

    Day after tomorrow, 26 January, Saturday

    Time Temperature Precipitation Wind Pressure Humidity
    00:00 -24°C° 0 mm 3 mps 758 mmHg 91%
    01:00 -24°C° 0 mm 3 mps 758 mmHg 90%
    02:00 -24°C° 0 mm 3 mps 758 mmHg 89%
    03:00 -25°C° 0 mm 4 mps 757 mmHg 88%
    04:00 -25°C° 0 mm 4 mps 757 mmHg 87%
    05:00 -25°C° 0 mm 4 mps 756 mmHg 86%
    06:00 -24°C° 0 mm 4 mps 756 mmHg 85%
    07:00 -25°C° 0 mm 5 mps 755 mmHg 85%
    08:00 -24°C° 0 mm 5 mps 755 mmHg 85%
    09:00 -22°C° 0 mm 5 mps 755 mmHg 85%
    10:00 -22°C° 0 mm 6 mps 754 mmHg 85%
    11:00 -20°C° 0 mm 6 mps 753 mmHg 85%
    12:00 -19°C° 0 mm 7 mps 753 mmHg 85%
    13:00 -18°C° 0.1 mm 7 mps 752 mmHg 87%
    14:00 -18°C° 0.1 mm 7 mps 751 mmHg 89%
    15:00 -17°C° 0.1 mm 7 mps 750 mmHg 92%
    16:00 -17°C° 0.2 mm 7 mps 750 mmHg 91%
    17:00 -15°C° 0.2 mm 7 mps 749 mmHg 91%
    18:00 -14°C° 0.2 mm 7 mps 748 mmHg 91%
    19:00 -14°C° 0.4 mm 7 mps 748 mmHg 91%
    20:00 -15°C° 0.4 mm 8 mps 747 mmHg 91%
    21:00 -15°C° 0.4 mm 8 mps 747 mmHg 92%
    22:00 -15°C° 0.5 mm 8 mps 746 mmHg 92%
    23:00 -15°C° 0.5 mm 8 mps 746 mmHg 93%

    27 January, Sunday

    Time Temperature Precipitation Wind Pressure Humidity
    00:00 -15°C° 0.5 mm 8 mps 746 mmHg 93%
    01:00 -13°C° 0.2 mm 8 mps 745 mmHg 92%
    02:00 -13°C° 0.2 mm 8 mps 745 mmHg 92%
    03:00 -12°C° 0.2 mm 8 mps 745 mmHg 91%
    04:00 -12°C° 0.1 mm 8 mps 744 mmHg 92%
    05:00 -12°C° 0.1 mm 8 mps 743 mmHg 92%
    06:00 -12°C° 0.1 mm 8 mps 743 mmHg 92%
    07:00 -11°C° 0.1 mm 8 mps 742 mmHg 92%
    08:00 -11°C° 0.1 mm 8 mps 742 mmHg 92%
    09:00 -11°C° 0.1 mm 8 mps 742 mmHg 92%
    10:00 -10°C° 0.4 mm 8 mps 741 mmHg 91%
    11:00 -10°C° 0.4 mm 8 mps 741 mmHg 91%
    12:00 -10°C° 0.4 mm 8 mps 740 mmHg 90%
    13:00 -8°C° 0.3 mm 8 mps 740 mmHg 90%
    14:00 -8°C° 0.3 mm 8 mps 739 mmHg 91%
    15:00 -8°C° 0.3 mm 8 mps 738 mmHg 91%
    16:00 -7°C° 0.7 mm 7 mps 738 mmHg 92%
    17:00 -7°C° 0.7 mm 7 mps 737 mmHg 93%
    18:00 -6°C° 0.7 mm 7 mps 737 mmHg 94%
    19:00 -6°C° 0.6 mm 7 mps 736 mmHg 93%
    20:00 -4°C° 0.6 mm 7 mps 736 mmHg 93%
    21:00 -4°C° 0.6 mm 6 mps 736 mmHg 93%
    22:00 -4°C° 0.4 mm 6 mps 736 mmHg 93%
    23:00 -3°C° 0.4 mm 6 mps 735 mmHg 93%

    28 January, Monday

    Time Temperature Precipitation Wind Pressure Humidity
    00:00 -2°C° 0.4 mm 5 mps 735 mmHg 94%
    01:00 -4°C° 0.6 mm 5 mps 736 mmHg 94%
    02:00 -4°C° 0.6 mm 5 mps 736 mmHg 94%
    03:00 -5°C° 0.6 mm 5 mps 736 mmHg 95%
    04:00 -8°C° 0.1 mm 6 mps 737 mmHg 94%
    05:00 -11°C° 0.1 mm 7 mps 737 mmHg 93%
    06:00 -13°C° 0.1 mm 7 mps 737 mmHg 91%
    07:00 -14°C° 0.2 mm 7 mps 738 mmHg 92%
    08:00 -15°C° 0.2 mm 7 mps 739 mmHg 92%
    09:00 -17°C° 0.2 mm 7 mps 739 mmHg 92%
    10:00 -18°C° 0.2 mm 7 mps 740 mmHg 92%
    11:00 -18°C° 0.2 mm 7 mps 741 mmHg 92%
    12:00 -19°C° 0.2 mm 7 mps 741 mmHg 92%
    13:00 -18°C° 0.1 mm 6 mps 742 mmHg 92%
    14:00 -18°C° 0.1 mm 6 mps 742 mmHg 91%
    15:00 -18°C° 0.1 mm 6 mps 743 mmHg 91%
    16:00 -20°C° 0 mm 6 mps 743 mmHg 91%
    17:00 -20°C° 0 mm 5 mps 744 mmHg 92%
    18:00 -21°C° 0 mm 5 mps 745 mmHg 92%
    19:00 -21°C° 0 mm 5 mps 745 mmHg 93%
    20:00 -22°C° 0 mm 4 mps 745 mmHg 94%
    21:00 -23°C° 0 mm 4 mps 746 mmHg 95%
    22:00 -23°C° 0 mm 4 mps 746 mmHg 96%
    23:00 -23°C° 0 mm 3 mps 747 mmHg 97%

    29 January, Tuesday

    Time Temperature Precipitation Wind Pressure Humidity
    00:00 -23°C° 0 mm 3 mps 747 mmHg 98%
    01:00 -23°C° 0 mm 3 mps 747 mmHg 97%
    02:00 -24°C° 0 mm 3 mps 748 mmHg 97%
    03:00 -23°C° 0 mm 2 mps 748 mmHg 97%
    04:00 -23°C° 0 mm 2 mps 748 mmHg 96%
    05:00 -23°C° 0 mm 2 mps 748 mmHg 96%
    06:00 -23°C° 0 mm 2 mps 748 mmHg 95%
    07:00 -21°C° 0 mm 2 mps 749 mmHg 92%
    08:00 -21°C° 0 mm 2 mps 749 mmHg 89%
    09:00 -20°C° 0 mm 2 mps 749 mmHg 87%
    10:00 -18°C° 0 mm 2 mps 749 mmHg 86%
    11:00 -16°C° 0 mm 2 mps 749 mmHg 86%
    12:00 -15°C° 0 mm 3 mps 749 mmHg 86%
    13:00 -14°C° 0.1 mm 3 mps 749 mmHg 88%
    14:00 -12°C° 0.1 mm 4 mps 749 mmHg 90%
    15:00 -11°C° 0.1 mm 4 mps 748 mmHg 93%
    16:00 -11°C° 0 mm 4 mps 748 mmHg 92%
    17:00 -11°C° 0 mm 5 mps 748 mmHg 91%
    18:00 -11°C° 0 mm 5 mps 748 mmHg 90%
    19:00 -11°C° 0.1 mm 5 mps 748 mmHg 90%
    20:00 -10°C° 0.1 mm 5 mps 747 mmHg 90%
    21:00 -10°C° 0.1 mm 6 mps 747 mmHg 90%
    22:00 -10°C° 0.3 mm 6 mps 747 mmHg 91%
    23:00 -8°C° 0.3 mm 5 mps 747 mmHg 93%
    Show more